Location: Kermapucano
(48.0667°N, 3.3000°W)
Time: 20:54:37
(UTC+00:00)

NOSS 3-4 (C) - Pass Details

Date: 29 November 2020
Orbit: 878 x 1334 km, 63.4° (Epoch: 25 January)

Event Time Altitude Azimuth Distance (km) Brightness Sun altitude
Exits shadow 05:48:14 26° 258° (WSW) 1,696 4.3 -18.0°
Maximum altitude 05:51:22 51° 321° (NW) 1,169 3.6 -17.5°
Drops below altitude 10° 05:57:37 10° 37° (NE) 2,778 6.2 -16.5°
Sets 06:00:27 0° 42° (NE) 3,800 7.0 -16.1°
